| time (UTC) | temp F | wind direction | speed MPH | gust MPH | rain 1hr in | rain 24hr in | rain mn in | humidity % | barometer mb |
| 20260506194505 | 52 | 59 | 6.0 | 10.0 | 0.00 | 0.01 | 0.01 | 72 | 1011.7 |
| 20260506193603 | 52 | 63 | 6.0 | 10.0 | 0.00 | 0.01 | 0.01 | 72 | 1011.8 |
| 20260506192705 | 52 | 61 | 6.0 | 10.0 | 0.00 | 0.01 | 0.01 | 73 | 1011.6 |
| 20260506191805 | 52 | 69 | 6.0 | 10.0 | 0.00 | 0.01 | 0.01 | 73 | 1011.2 |
| 20260506190906 | 52 | 48 | 6.0 | 7.0 | 0.00 | 0.01 | 0.01 | 74 | 1011.3 |
| 20260506190005 | 52 | 51 | 5.0 | 5.0 | 0.00 | 0.01 | 0.01 | 74 | 1011.1 |
| 20260506185405 | 52 | 50 | 5.0 | 6.0 | 0.00 | 0.01 | 0.01 | 74 | 1010.9 |
| 20260506184722 | 52 | 46 | 5.0 | 8.0 | 0.00 | 0.01 | 0.01 | 75 | 1010.8 |
| 20260506183604 | 52 | 50 | 7.0 | 7.0 | 0.00 | 0.01 | 0.01 | 74 | 1010.7 |
| 20260506182705 | 53 | 50 | 6.0 | 7.0 | 0.00 | 0.01 | 0.01 | 74 | 1010.9 |
| 20260506181808 | 53 | 49 | 6.0 | 7.0 | 0.00 | 0.01 | 0.01 | 73 | 1010.6 |
| 20260506180903 | 54 | 57 | 6.0 | 7.0 | 0.00 | 0.01 | 0.01 | 71 | 1010.4 |
| 20260506180005 | 55 | 76 | 7.0 | 7.0 | 0.00 | 0.01 | 0.01 | 69 | 1010.3 |
| 20260506175405 | 55 | 64 | 6.0 | 7.0 | 0.00 | 0.01 | 0.01 | 66 | 1010.2 |
| 20260506174505 | 55 | 63 | 5.0 | 7.0 | 0.00 | 0.01 | 0.01 | 62 | 1010.1 |
| 20260506173603 | 56 | 51 | 5.0 | 7.0 | 0.00 | 0.01 | 0.01 | 62 | 1010.2 |
| 20260506172703 | 56 | 42 | 4.0 | 5.0 | 0.00 | 0.01 | 0.01 | 64 | 1009.8 |
| 20260506171803 | 56 | 56 | 5.0 | 7.0 | 0.00 | 0.01 | 0.01 | 66 | 1009.8 |
| 20260506170905 | 56 | 35 | 5.0 | 7.0 | 0.00 | 0.01 | 0.01 | 65 | 1009.5 |
| 20260506170010 | 56 | 63 | 5.0 | 7.0 | 0.00 | 0.01 | 0.01 | 64 | 1009.8 |
| 20260506165616 | 56 | 53 | 5.0 | 6.0 | 0.00 | 0.01 | 0.01 | 64 | 1009.6 |
| 20260506164718 | 57 | 43 | 6.0 | 8.0 | 0.00 | 0.01 | 0.01 | 66 | 1009.3 |
| 20260506163604 | 58 | 42 | 6.0 | 7.0 | 0.00 | 0.01 | 0.01 | 63 | 1009.3 |
| 20260506162705 | 59 | 36 | 5.0 | 7.0 | 0.00 | 0.01 | 0.01 | 62 | 1009.3 |
| 20260506161804 | 59 | 19 | 4.0 | 6.0 | 0.00 | 0.01 | 0.01 | 63 | 1009.1 |
| 20260506160903 | 58 | 25 | 5.0 | 7.0 | 0.00 | 0.01 | 0.01 | 63 | 1009.1 |
| 20260506160214 | 59 | 42 | 4.0 | 7.0 | 0.00 | 0.01 | 0.01 | 62 | 1009.2 |
| 20260506155616 | 58 | 40 | 5.0 | 6.0 | 0.00 | 0.01 | 0.01 | 61 | 1009.0 |
| 20260506154503 | 59 | 26 | 3.0 | 5.0 | 0.00 | 0.01 | 0.01 | 59 | 1009.4 |
| 20260506153603 | 59 | 3 | 3.0 | 5.0 | 0.00 | 0.01 | 0.01 | 60 | 1009.1 |
| 20260506152918 | 59 | 333 | 3.0 | 5.0 | 0.00 | 0.01 | 0.01 | 60 | 1009.4 |
| 20260506151804 | 58 | 28 | 5.0 | 6.0 | 0.00 | 0.01 | 0.01 | 59 | 1009.0 |
| 20260506150903 | 59 | 47 | 3.0 | 6.0 | 0.00 | 0.01 | 0.01 | 64 | 1009.2 |
| 20260506150225 | 59 | 96 | 4.0 | 5.0 | 0.00 | 0.01 | 0.01 | 67 | 1009.1 |
| 20260506145405 | 58 | 46 | 5.0 | 5.0 | 0.00 | 0.01 | 0.01 | 67 | 1009.3 |
| 20260506144505 | 58 | 31 | 5.0 | 6.0 | 0.00 | 0.01 | 0.01 | 66 | 1009.2 |
| 20260506143605 | 58 | 41 | 5.0 | 6.0 | 0.00 | 0.01 | 0.01 | 65 | 1009.2 |
| 20260506142704 | 59 | 24 | 4.0 | 5.0 | 0.00 | 0.01 | 0.01 | 64 | 1009.2 |
| 20260506141805 | 59 | 27 | 4.0 | 7.0 | 0.00 | 0.01 | 0.01 | 63 | 1009.0 |
| 20260506140905 | 59 | 35 | 6.0 | 7.0 | 0.00 | 0.01 | 0.01 | 60 | 1009.1 |
| 20260506140216 | 59 | 27 | 6.0 | 7.0 | 0.00 | 0.01 | 0.01 | 62 | 1009.2 |
| 20260506135404 | 60 | 348 | 5.0 | 7.0 | 0.00 | 0.01 | 0.01 | 60 | 1009.0 |
| 20260506134505 | 60 | 339 | 4.0 | 6.0 | 0.00 | 0.01 | 0.01 | 62 | 1009.3 |
| 20260506133609 | 60 | 39 | 6.0 | 8.0 | 0.00 | 0.01 | 0.01 | 61 | 1009.0 |
| 20260506132705 | 60 | 65 | 6.0 | 6.0 | 0.00 | 0.01 | 0.01 | 64 | 1008.9 |
| 20260506131804 | 59 | 50 | 6.0 | 7.0 | 0.00 | 0.01 | 0.01 | 66 | 1009.1 |
| 20260506130910 | 59 | 45 | 4.0 | 5.0 | 0.00 | 0.01 | 0.01 | 67 | 1009.0 |
| 20260506130216 | 57 | 45 | 5.0 | 8.0 | 0.00 | 0.01 | 0.01 | 68 | 1009.0 |
| 20260506125405 | 57 | 33 | 6.0 | 7.0 | 0.00 | 0.01 | 0.01 | 69 | 1009.0 |
| 20260506124504 | 57 | 49 | 7.0 | 10.0 | 0.00 | 0.01 | 0.01 | 69 | 1008.9 |
| 20260506123605 | 59 | 53 | 5.0 | 8.0 | 0.00 | 0.01 | 0.01 | 68 | 1008.7 |
| 20260506122705 | 59 | 50 | 5.0 | 8.0 | 0.00 | 0.01 | 0.01 | 67 | 1008.9 |
| 20260506121803 | 60 | 50 | 5.0 | 7.0 | 0.00 | 0.01 | 0.01 | 67 | 1008.7 |
| 20260506120903 | 60 | 45 | 7.0 | 8.0 | 0.00 | 0.01 | 0.01 | 65 | 1008.7 |
| 20260506120008 | 60 | 21 | 6.0 | 10.0 | 0.00 | 0.01 | 0.01 | 69 | 1008.8 |
| 20260506115614 | 59 | 19 | 6.0 | 10.0 | 0.00 | 0.01 | 0.01 | 69 | 1008.8 |
| 20260506114505 | 59 | 45 | 6.0 | 10.0 | 0.00 | 0.01 | 0.01 | 71 | 1008.7 |
| 20260506113604 | 58 | 333 | 5.0 | 7.0 | 0.00 | 0.01 | 0.01 | 76 | 1008.5 |
| 20260506112916 | 58 | 14 | 6.0 | 7.0 | 0.00 | 0.01 | 0.01 | 75 | 1008.6 |
| 20260506111805 | 56 | 12 | 5.0 | 5.0 | 0.00 | 0.01 | 0.01 | 77 | 1008.8 |
| 20260506111115 | 56 | 6 | 5.0 | 5.0 | 0.00 | 0.01 | 0.01 | 78 | 1008.8 |
| 20260506110004 | 57 | 27 | 4.0 | 6.0 | 0.00 | 0.01 | 0.01 | 78 | 1008.8 |
| 20260506105405 | 57 | 358 | 4.0 | 5.0 | 0.00 | 0.01 | 0.01 | 78 | 1008.7 |
| 20260506104503 | 58 | 50 | 3.0 | 5.0 | 0.00 | 0.01 | 0.01 | 78 | 1009.0 |
| 20260506103610 | 58 | 325 | 3.0 | 4.0 | 0.00 | 0.01 | 0.01 | 79 | 1008.9 |
| 20260506102703 | 57 | 30 | 4.0 | 6.0 | 0.00 | 0.01 | 0.01 | 82 | 1008.7 |
| 20260506101803 | 56 | 30 | 5.0 | 7.0 | 0.00 | 0.01 | 0.01 | 81 | 1008.9 |
| 20260506100905 | 56 | 22 | 4.0 | 5.0 | 0.00 | 0.01 | 0.01 | 83 | 1008.7 |
| 20260506100218 | 56 | 29 | 3.0 | 4.0 | 0.00 | 0.01 | 0.01 | 84 | 1008.8 |
| 20260506095403 | 55 | 315 | 4.0 | 5.0 | 0.00 | 0.01 | 0.01 | 86 | 1008.9 |
| 20260506094508 | 54 | 302 | 3.0 | 4.0 | 0.00 | 0.01 | 0.01 | 89 | 1008.9 |
| 20260506093603 | 53 | 357 | 3.0 | 3.0 | 0.00 | 0.01 | 0.01 | 92 | 1008.8 |
| 20260506092703 | 53 | 256 | 3.0 | 3.0 | 0.00 | 0.01 | 0.01 | 95 | 1008.9 |
| 20260506091805 | 52 | 300 | 3.0 | 3.0 | 0.00 | 0.01 | 0.01 | 96 | 1008.7 |
| 20260506090904 | 51 | 264 | 3.0 | 3.0 | 0.00 | 0.01 | 0.01 | 97 | 1008.7 |
| 20260506090005 | 51 | 297 | 3.0 | 5.0 | 0.00 | 0.01 | 0.01 | 98 | 1008.6 |
| 20260506085404 | 51 | 281 | 3.0 | 5.0 | 0.00 | 0.01 | 0.01 | 99 | 1008.8 |
| 20260506084504 | 51 | 266 | 2.0 | 3.0 | 0.00 | 0.01 | 0.01 | 99 | 1008.8 |
| 20260506083612 | 51 | 332 | 2.0 | 3.0 | 0.00 | 0.01 | 0.01 | 99 | 1008.6 |
| 20260506082705 | 50 | 291 | 1.0 | 2.0 | 0.00 | 0.01 | 0.01 | 99 | 1008.3 |
| 20260506081803 | 49 | 8 | 2.0 | 4.0 | 0.00 | 0.01 | 0.01 | 99 | 1008.4 |
| 20260506080905 | 49 | 352 | 2.0 | 5.0 | 0.00 | 0.01 | 0.01 | 99 | 1008.6 |
| 20260506072705 | 49 | 12 | 3.0 | 4.0 | 0.00 | 0.01 | 0.01 | 99 | 1008.4 |
| 20260506072016 | 49 | 11 | 3.0 | 4.0 | 0.00 | 0.01 | 0.01 | 99 | 1008.5 |
| 20260506070905 | 49 | 50 | 4.0 | 5.0 | 0.00 | 0.01 | 0.01 | 99 | 1008.3 |
| 20260506062016 | 48 | 17 | 3.0 | 3.0 | 0.00 | 0.00 | 0.00 | 98 | 1008.1 |
| 20260506061113 | 48 | 35 | 3.0 | 4.0 | 0.00 | 0.00 | 0.00 | 97 | 1008.1 |
| 20260506050905 | 49 | 43 | 4.0 | 7.0 | 0.00 | 0.00 | 0.00 | 90 | 1007.7 |
| 20260506044504 | 50 | 35 | 2.0 | 4.0 | 0.00 | 0.00 | 0.00 | 89 | 1007.8 |
| 20260506043605 | 50 | 29 | 5.0 | 6.0 | 0.00 | 0.00 | 0.00 | 89 | 1007.7 |
| 20260506042703 | 50 | 37 | 6.0 | 10.0 | 0.00 | 0.00 | 0.00 | 88 | 1007.6 |
| 20260506041803 | 49 | 31 | 4.0 | 6.0 | 0.00 | 0.00 | 0.00 | 88 | 1007.7 |
| 20260506040905 | 49 | 2 | 4.0 | 5.0 | 0.00 | 0.00 | 0.00 | 88 | 1007.6 |
| 20260506040005 | 49 | 19 | 3.0 | 5.0 | 0.00 | 0.00 | 0.00 | 88 | 1007.9 |
| 20260506035403 | 49 | 21 | 3.0 | 6.0 | 0.00 | 0.00 | 0.00 | 88 | 1007.8 |
| 20260506034509 | 49 | 43 | 3.0 | 4.0 | 0.00 | 0.00 | 0.00 | 88 | 1007.9 |
| 20260506033606 | 49 | 41 | 3.0 | 4.0 | 0.00 | 0.00 | 0.00 | 88 | 1007.8 |
| 20260506032917 | 49 | 36 | 3.0 | 4.0 | 0.00 | 0.00 | 0.00 | 87 | 1007.8 |
| 20260506031803 | 49 | 22 | 3.0 | 4.0 | 0.00 | 0.00 | 0.00 | 87 | 1007.9 |
| 20260506030903 | 49 | 23 | 3.0 | 4.0 | 0.00 | 0.01 | 0.00 | 87 | 1007.9 |
| 20260506030005 | 49 | 53 | 3.0 | 4.0 | 0.00 | 0.01 | 0.00 | 86 | 1008.0 |
| 20260506025614 | 49 | 60 | 3.0 | 4.0 | 0.00 | 0.01 | 0.00 | 86 | 1007.9 |
| 20260506024505 | 49 | 36 | 3.0 | 3.0 | 0.00 | 0.01 | 0.00 | 86 | 1008.0 |
| 20260506023604 | 49 | 26 | 3.0 | 4.0 | 0.00 | 0.01 | 0.00 | 85 | 1008.4 |
| 20260506022916 | 49 | 25 | 3.0 | 5.0 | 0.00 | 0.01 | 0.00 | 85 | 1008.1 |
| 20260506021805 | 50 | 27 | 3.0 | 4.0 | 0.00 | 0.01 | 0.00 | 85 | 1008.2 |
| 20260506020903 | 50 | 17 | 4.0 | 6.0 | 0.00 | 0.01 | 0.00 | 85 | 1008.1 |
| 20260506020219 | 50 | 29 | 4.0 | 6.0 | 0.00 | 0.01 | 0.00 | 84 | 1008.3 |
| 20260506015405 | 50 | 29 | 3.0 | 4.0 | 0.00 | 0.01 | 0.00 | 84 | 1008.2 |
| 20260506014722 | 50 | 38 | 4.0 | 5.0 | 0.00 | 0.01 | 0.00 | 84 | 1008.2 |
| 20260506013603 | 50 | 41 | 4.0 | 4.0 | 0.00 | 0.01 | 0.00 | 85 | 1008.3 |
| 20260506012703 | 50 | 61 | 3.0 | 4.0 | 0.00 | 0.01 | 0.00 | 85 | 1008.4 |
| 20260506011803 | 50 | 39 | 3.0 | 4.0 | 0.00 | 0.01 | 0.00 | 85 | 1008.3 |
| 20260506010905 | 50 | 29 | 5.0 | 6.0 | 0.00 | 0.01 | 0.00 | 84 | 1008.3 |
| 20260506010007 | 50 | 29 | 4.0 | 6.0 | 0.00 | 0.01 | 0.00 | 84 | 1008.4 |
| 20260506005405 | 50 | 40 | 4.0 | 5.0 | 0.00 | 0.01 | 0.00 | 84 | 1008.3 |
| 20260506004504 | 50 | 38 | 3.0 | 5.0 | 0.00 | 0.01 | 0.00 | 83 | 1008.5 |
| 20260506003605 | 51 | 32 | 4.0 | 7.0 | 0.00 | 0.01 | 0.00 | 83 | 1008.6 |
| 20260506002705 | 51 | 34 | 5.0 | 6.0 | 0.00 | 0.01 | 0.00 | 82 | 1008.6 |
| 20260506001805 | 51 | 29 | 5.0 | 6.0 | 0.00 | 0.01 | 0.00 | 82 | 1008.8 |
| 20260506000903 | 51 | 77 | 6.0 | 6.0 | 0.00 | 0.01 | 0.00 | 83 | 1008.7 |
| 20260506000215 | 51 | 48 | 5.0 | 6.0 | 0.00 | 0.01 | 0.00 | 83 | 1008.9 |
| 20260505235403 | 51 | 48 | 5.0 | 6.0 | 0.00 | 0.01 | 0.00 | 83 | 1008.8 |
| 20260505234508 | 51 | 43 | 4.0 | 6.0 | 0.00 | 0.01 | 0.00 | 83 | 1008.7 |
| 20260505233816 | 51 | 47 | 4.0 | 6.0 | 0.00 | 0.01 | 0.00 | 84 | 1008.9 |
| 20260505232705 | 51 | 40 | 5.0 | 7.0 | 0.00 | 0.01 | 0.00 | 83 | 1008.9 |
| 20260505231810 | 51 | 47 | 6.0 | 7.0 | 0.00 | 0.01 | 0.00 | 83 | 1008.7 |
| 20260505230905 | 51 | 62 | 5.0 | 7.0 | 0.00 | 0.01 | 0.00 | 83 | 1009.0 |
| 20260505230006 | 51 | 47 | 5.0 | 7.0 | 0.00 | 0.01 | 0.00 | 84 | 1008.9 |
| 20260505225403 | 51 | 47 | 5.0 | 6.0 | 0.00 | 0.01 | 0.00 | 84 | 1009.0 |
| 20260505224504 | 51 | 63 | 5.0 | 7.0 | 0.00 | 0.01 | 0.00 | 84 | 1008.8 |
| 20260505223605 | 51 | 52 | 5.0 | 6.0 | 0.00 | 0.01 | 0.00 | 84 | 1009.1 |
| 20260505222705 | 51 | 61 | 5.0 | 6.0 | 0.00 | 0.01 | 0.00 | 85 | 1009.0 |
| 20260505221805 | 52 | 55 | 5.0 | 5.0 | 0.00 | 0.01 | 0.00 | 85 | 1009.1 |
| 20260505220903 | 52 | 43 | 6.0 | 7.0 | 0.00 | 0.01 | 0.00 | 85 | 1009.3 |
| 20260505220007 | 52 | 51 | 6.0 | 7.0 | 0.00 | 0.01 | 0.00 | 84 | 1009.2 |
| 20260505215403 | 52 | 45 | 6.0 | 7.0 | 0.00 | 0.04 | 0.01 | 84 | 1009.1 |
| 20260505214505 | 52 | 63 | 7.0 | 10.0 | 0.00 | 0.12 | 0.01 | 84 | 1009.1 |
| 20260505213604 | 53 | 58 | 6.0 | 10.0 | 0.00 | 0.21 | 0.01 | 84 | 1009.3 |
| 20260505212705 | 53 | 48 | 5.0 | 6.0 | 0.00 | 0.26 | 0.01 | 84 | 1009.3 |
| 20260505211803 | 53 | 49 | 4.0 | 6.0 | 0.00 | 0.30 | 0.01 | 84 | 1009.2 |
| 20260505210905 | 53 | 50 | 5.0 | 10.0 | 0.00 | 0.40 | 0.01 | 84 | 1009.3 |
| 20260505210005 | 53 | 45 | 6.0 | 10.0 | 0.00 | 0.44 | 0.01 | 83 | 1009.3 |
| 20260505205407 | 53 | 58 | 4.0 | 5.0 | 0.00 | 0.48 | 0.01 | 84 | 1009.1 |
| 20260505204503 | 53 | 64 | 6.0 | 8.0 | 0.00 | 0.62 | 0.01 | 83 | 1009.3 |
| 20260505203603 | 53 | 47 | 4.0 | 5.0 | 0.00 | 0.67 | 0.01 | 85 | 1009.3 |
| 20260505202915 | 53 | 51 | 3.0 | 4.0 | 0.00 | 0.68 | 0.01 | 88 | 1009.2 |
| 20260505201804 | 53 | 65 | 1.0 | 3.0 | 0.00 | 0.70 | 0.01 | 93 | 1009.3 |
| 20260505201120 | 53 | 67 | 0.0 | 1.0 | 0.00 | 0.71 | 0.01 | 93 | 1009.5 |
| 20260505200004 | 53 | 82 | 0.0 | 1.0 | 0.00 | 0.71 | 0.01 | 93 | 1009.2 |
| 20260505195407 | 53 | 81 | 1.0 | 2.0 | 0.00 | 0.72 | 0.01 | 92 | 1008.9 |